CW9540 Weather Reports


Display with metric or nautical units.
time (UTC)temp
F
wind
direction
speed
MPH
gust
MPH
rain 1hr
in
rain 24hr
in
rain mn
in
humidity
%
barometer
mb
20260903182503 85 247 2.0 6.0 0.00 1.96 0.01 65 1010.3
20260903182004 87 182 3.0 7.0 0.00 1.96 0.01 65 1010.3
20260903181600 87 213 1.0 5.0 0.00 1.96 0.01 66 1012.1
20260903181503 86 93 1.0 3.0 0.00 1.96 0.01 67 1010.4
20260903181003 84 355 2.0 5.0 0.00 1.96 0.01 68 1010.3
20260903180503 85 247 2.0 6.0 0.00 1.96 0.01 63 1010.3
20260903180057 84 197 3.0 7.0 0.00 1.96 0.01 63 1012.1
20260903180003 85 226 3.0 6.0 0.00 1.96 0.01 64 1010.3
20260903175503 86 64 1.0 3.0 0.00 1.96 0.01 67 1010.3
20260903175004 83 329 1.0 3.0 0.00 1.96 0.01 67 1010.4
20260903174555 84 223 1.0 4.0 0.00 1.96 0.01 66 1012.2
20260903174503 84 225 2.0 3.0 0.00 1.96 0.01 67 1010.5
20260903174003 84 286 1.0 3.0 0.00 1.96 0.01 67 1010.5
20260903173504 84 246 2.0 3.0 0.00 1.96 0.01 63 1010.5
20260903173058 84 0 0.0 6.0 0.00 1.96 0.01 67 1012.2
20260903173004 83 73 1.0 3.0 0.00 1.96 0.01 68 1010.4
20260903172504 84 247 3.0 6.0 0.00 1.96 0.01 63 1010.5
20260903172004 84 228 1.0 3.0 0.00 1.96 0.01 64 1010.5
20260903171604 84 170 1.0 4.0 0.00 1.96 0.01 62 1012.3
20260903171503 84 146 2.0 3.0 0.00 1.96 0.01 64 1010.6
20260903171004 85 307 1.0 3.0 0.00 1.96 0.01 68 1010.6
20260903170504 85 223 1.0 3.0 0.00 1.96 0.01 64 1010.6
20260903170004 84 78 1.0 2.0 0.01 1.96 0.01 65 1010.6
20260903165503 84 2 1.0 2.0 0.01 1.96 0.01 65 1010.7
20260903165003 82 61 1.0 2.0 0.01 1.96 0.01 67 1010.7
20260903164608 82 269 0.0 4.0 0.01 1.96 0.01 63 1012.4
20260903164503 83 225 1.0 2.0 0.01 1.96 0.01 65 1010.6
20260903164004 83 220 1.0 3.0 0.01 1.96 0.01 67 1010.6
20260903163504 82 11 1.0 3.0 0.01 1.96 0.01 64 1010.7
20260903163102 83 314 0.0 2.0 0.01 1.96 0.01 67 1012.6
20260903163003 83 128 1.0 2.0 0.01 1.96 0.01 65 1010.7
20260903162503 83 108 0.0 2.0 0.01 1.96 0.01 62 1010.7
20260903162004 82 88 0.0 2.0 0.01 1.96 0.01 67 1010.8
20260903161601 81 314 0.0 2.0 0.01 1.96 0.01 64 1012.9
20260903161504 82 292 0.0 1.0 0.01 1.96 0.01 68 1011.0
20260903161004 82 30 1.0 2.0 0.01 1.96 0.01 66 1011.0
20260903160504 82 135 1.0 5.0 0.01 1.96 0.01 69 1011.1
20260903160056 81 127 1.0 4.0 0.01 1.96 0.01 67 1013.1
20260903155504 81 4 1.0 3.0 0.00 1.95 0.00 67 1011.2
20260903155004 80 55 1.0 3.0 0.00 1.95 0.00 72 1011.2
20260903154553 80 0 0.0 4.0 0.00 1.95 0.00 73 1013.3
20260903154003 80 33 1.0 3.0 0.00 1.95 0.00 72 1011.3
20260903153504 79 213 2.0 3.0 0.00 1.95 0.00 75 1011.4
20260903153101 78 0 2.0 5.0 0.00 1.95 0.00 73 1013.4
20260903153004 79 235 2.0 5.0 0.00 1.95 0.00 75 1011.4
20260903152504 79 197 3.0 5.0 0.00 1.95 0.00 74 1011.4
20260903152004 78 205 1.0 3.0 0.00 1.95 0.00 82 1011.4
20260903151555 77 223 0.0 3.0 0.00 1.95 0.00 84 1013.3
20260903151503 77 295 1.0 2.0 0.00 1.95 0.00 85 1011.4
20260903151004 76 59 1.0 3.0 0.00 1.95 0.00 86 1011.3
20260903150503 76 250 1.0 3.0 0.00 1.95 0.00 86 1011.3
20260903150101 76 0 0.0 4.0 0.00 1.95 0.00 87 1013.3
20260903145503 76 272 1.0 2.0 0.00 1.95 0.00 90 1011.4
20260903145004 76 299 1.0 3.0 0.00 1.95 0.00 91 1011.6
20260903144601 75 164 0.0 5.0 0.00 1.95 0.00 90 1013.3
20260903144504 75 159 1.0 3.0 0.00 1.95 0.00 90 1011.5
20260903143106 74 311 1.0 5.0 0.00 1.95 0.00 92 1013.4
20260903143004 74 261 1.0 3.0 0.00 1.95 0.00 93 1011.6
20260903142504 74 191 2.0 3.0 0.00 1.95 0.00 94 1011.6
20260903142004 74 187 1.0 3.0 0.00 1.95 0.00 94 1011.6
20260903141553 73 0 0.0 3.0 0.00 1.95 0.00 94 1013.3
20260903141504 73 175 1.0 3.0 0.00 1.95 0.00 94 1011.6
20260903141003 73 202 2.0 3.0 0.00 1.95 0.00 95 1011.5
20260903140503 73 177 1.0 3.0 0.00 1.95 0.00 95 1011.5
20260903140057 72 23 1.0 3.0 0.00 1.95 0.00 94 1013.2
20260903140003 73 159 1.0 3.0 0.00 1.95 0.00 95 1011.4
20260903135503 73 236 2.0 3.0 0.00 1.95 0.00 95 1011.4
20260903135003 73 194 2.0 3.0 0.00 1.95 0.00 95 1011.3
20260903134556 72 213 1.0 3.0 0.00 2.01 0.00 95 1013.2
20260903134504 73 204 1.0 3.0 0.00 1.95 0.00 95 1011.4
20260903134005 73 192 1.0 3.0 0.00 1.95 0.00 96 1011.5
20260903133109 72 35 2.0 5.0 0.00 2.01 0.00 96 1013.5
20260903133004 72 189 2.0 5.0 0.00 1.95 0.00 96 1011.5
20260903132503 72 184 2.0 3.0 0.00 1.95 0.00 96 1011.5
20260903132003 72 191 2.0 3.0 0.00 1.96 0.00 97 1011.5
20260903131556 72 190 1.0 5.0 0.00 2.01 0.00 96 1013.5
20260903131503 72 270 1.0 3.0 0.00 1.96 0.00 97 1011.6
20260903131003 72 230 2.0 5.0 0.00 1.96 0.00 97 1011.6
20260903130503 71 102 1.0 3.0 0.00 1.99 0.00 97 1011.6
20260903130123 71 178 1.0 3.0 0.00 2.01 0.00 96 1013.6
20260903130004 71 139 1.0 3.0 0.00 2.02 0.00 97 1011.6
20260903125504 71 186 1.0 3.0 0.00 2.03 0.00 96 1011.6
20260903125004 71 183 1.0 3.0 0.00 2.04 0.00 96 1011.6
20260903124610 70 124 1.0 3.0 0.00 2.04 0.00 96 1013.6
20260903124003 71 222 0.0 3.0 0.00 2.04 0.00 97 1011.7
20260903123053 70 1 0.0 2.0 0.00 2.04 0.00 96 1013.7
20260903122504 70 177 1.0 2.0 0.00 2.04 0.00 96 1011.6
20260903122004 70 192 1.0 2.0 0.00 2.04 0.00 96 1011.6
20260903121555 70 238 1.0 2.0 0.00 2.04 0.00 96 1013.5
20260903121503 70 198 2.0 2.0 0.00 2.04 0.00 96 1011.5
20260903121003 70 216 1.0 2.0 0.00 2.04 0.00 97 1011.3
20260903120123 69 269 0.0 2.0 0.00 2.04 0.00 96 1013.2
20260903120004 70 222 1.0 1.0 0.00 2.04 0.00 96 1011.3
20260903115505 69 213 1.0 2.0 0.00 2.04 0.00 96 1011.2
20260903115003 69 199 1.0 2.0 0.00 2.04 0.00 96 1011.2
20260903114552 69 213 1.0 3.0 0.00 2.04 0.00 96 1013.1
20260903114003 69 203 1.0 3.0 0.00 2.04 0.00 96 1011.1
20260903113054 68 295 0.0 2.0 0.00 2.04 0.00 96 1013.1
20260903113004 69 191 1.0 2.0 0.00 2.04 0.00 96 1011.0
20260903112504 69 72 0.0 1.0 0.00 2.04 0.00 96 1010.9
20260903111556 68 0 0.0 1.0 0.00 2.04 0.00 96 1012.9
20260903111503 69 23 0.0 1.0 0.00 2.04 0.00 96 1011.0
20260903111003 68 6 0.0 1.0 0.00 2.04 0.00 96 1010.8
20260903110503 68 93 0.0 1.0 0.00 2.04 0.00 96 1010.7
20260903110059 68 152 0.0 2.0 0.00 2.04 0.00 96 1012.5
20260903110004 68 144 1.0 2.0 0.00 2.04 0.00 96 1010.7
20260903105504 68 159 0.0 1.0 0.00 2.04 0.00 96 1010.7
20260903105004 68 0 0.0 1.0 0.00 2.04 0.00 96 1010.7
20260903104554 68 0 0.0 2.0 0.00 2.04 0.00 96 1012.4
20260903104503 68 55 0.0 1.0 0.00 2.04 0.00 96 1010.7
20260903104004 68 36 1.0 2.0 0.00 2.04 0.00 96 1010.7
20260903103503 68 22 0.0 1.0 0.00 2.04 0.00 96 1010.6
20260903103056 67 269 0.0 2.0 0.00 2.04 0.00 96 1012.3
20260903102503 68 189 1.0 2.0 0.00 2.04 0.00 96 1010.5
20260903102004 68 216 0.0 1.0 0.00 2.04 0.00 96 1010.4
20260903101555 67 0 0.0 1.0 0.00 2.04 0.00 96 1011.9
20260903101504 68 66 0.0 1.0 0.00 2.04 0.00 96 1010.2
20260903101004 68 47 0.0 1.0 0.00 2.04 0.00 96 1010.3
20260903100504 68 47 0.0 1.0 0.00 2.04 0.00 96 1010.2
20260903100054 68 0 0.0 1.0 0.00 2.04 0.00 95 1012.0
20260903100003 68 56 0.0 1.0 0.00 2.04 0.00 96 1010.3
20260903095503 68 92 0.0 1.0 0.00 2.04 0.00 96 1010.3
20260903095004 68 36 0.0 1.0 0.00 2.04 0.00 96 1010.4
20260903094605 68 0 0.0 1.0 0.00 2.04 0.00 95 1012.0
20260903094504 68 32 1.0 1.0 0.00 2.04 0.00 96 1010.4
20260903094003 68 104 0.0 1.0 0.00 2.04 0.00 96 1010.4
20260903093503 68 48 0.0 1.0 0.00 2.04 0.00 96 1010.4
20260903093055 68 0 0.0 1.0 0.00 2.04 0.00 96 1012.1
20260903093003 68 55 0.0 1.0 0.00 2.04 0.00 96 1010.3
20260903092504 68 98 0.0 1.0 0.00 2.04 0.00 96 1010.3
20260903091552 68 0 0.0 1.0 0.00 2.04 0.00 96 1012.0
20260903091504 68 346 0.0 1.0 0.00 2.04 0.00 96 1010.3
20260903091003 68 216 0.0 1.0 0.00 2.04 0.00 96 1010.3
20260903090503 68 52 0.0 1.0 0.00 2.04 0.00 96 1010.4
20260903090106 68 0 0.0 1.0 0.00 2.04 0.00 95 1012.1
20260903090004 68 142 0.0 1.0 0.00 2.04 0.00 96 1010.4
20260903085503 68 64 0.0 1.0 0.00 2.04 0.00 96 1010.3
20260903085003 68 87 0.0 1.0 0.00 2.04 0.00 96 1010.3
20260903084554 68 161 0.0 1.0 0.00 2.04 0.00 95 1012.0
20260903084504 68 189 0.0 1.0 0.00 2.04 0.00 96 1010.3
20260903084004 69 89 0.0 1.0 0.00 2.04 0.00 96 1010.2
20260903083504 69 29 0.0 1.0 0.00 2.04 0.00 96 1010.1
20260903083101 68 0 0.0 1.0 0.00 2.04 0.00 95 1011.9
20260903083003 69 30 0.0 1.0 0.00 2.04 0.00 96 1010.0
20260903082004 69 165 0.0 1.0 0.00 2.04 0.00 96 1010.2
20260903081553 68 0 0.0 1.0 0.00 2.04 0.00 95 1011.9
20260903081506 69 29 0.0 1.0 0.00 2.04 0.00 96 1010.1
20260903081003 69 33 0.0 1.0 0.00 2.04 0.00 96 1010.1
20260903080504 69 41 1.0 1.0 0.00 2.04 0.00 96 1010.0
20260903080051 68 0 0.0 1.0 0.00 2.04 0.00 95 1011.8
20260903080004 69 17 1.0 1.0 0.00 2.04 0.00 96 1010.0
20260903075503 69 347 0.0 1.0 0.00 2.04 0.00 96 1009.9
20260903075003 69 99 0.0 1.0 0.00 2.04 0.00 96 1009.9
20260903074605 68 0 0.0 2.0 0.00 2.04 0.00 95 1011.7
20260903074503 69 83 0.0 2.0 0.00 2.04 0.00 96 1009.9
20260903074004 69 350 0.0 1.0 0.00 2.04 0.00 96 1009.9
20260903073155 68 0 0.0 1.0 0.00 2.04 0.00 95 1011.8
20260903073003 69 136 0.0 1.0 0.00 2.04 0.00 96 1009.9
20260903072503 69 57 0.0 1.0 0.00 2.04 0.00 96 1010.0
20260903072003 69 37 0.0 1.0 0.00 2.04 0.00 96 1009.9
20260903071615 68 0 0.0 1.0 0.00 2.04 0.00 95 1011.9
20260903071504 69 213 1.0 1.0 0.00 2.04 0.00 96 1010.1
20260903071004 69 101 0.0 1.0 0.00 2.04 0.00 96 1010.2
20260903070503 69 102 0.0 1.0 0.00 2.04 0.00 96 1010.2
20260903065503 69 60 1.0 1.0 0.00 2.04 0.00 96 1010.2
20260903065004 69 46 0.0 1.0 0.00 2.04 0.00 96 1010.1
20260903064553 68 0 0.0 1.0 0.00 2.04 0.00 95 1012.0
20260903064504 69 88 0.0 1.0 0.00 2.04 0.00 96 1010.2
20260903064004 69 113 0.0 1.0 0.00 2.04 0.00 96 1010.2
20260903063503 69 184 0.0 1.0 0.00 2.04 0.00 96 1010.3
20260903063056 68 0 0.0 1.0 0.00 2.04 0.00 95 1012.1
20260903063004 69 39 0.0 1.0 0.00 2.04 0.00 96 1010.3
20260903062004 69 140 0.0 1.0 0.00 2.04 0.00 96 1010.3
20260903061604 69 0 0.0 3.0 0.00 2.04 0.00 95 1012.0
20260903061503 69 69 0.0 2.0 0.00 2.04 0.00 96 1010.3
20260903061003 69 143 1.0 3.0 0.00 2.04 0.00 96 1010.2
20260903060503 69 128 1.0 2.0 0.00 2.04 0.00 96 1010.3
20260903060129 69 360 0.0 2.0 0.00 2.04 0.00 95 1012.0
20260903060003 69 83 1.0 2.0 0.00 2.04 0.00 96 1010.2
20260903055504 69 61 0.0 2.0 0.00 2.04 0.00 96 1010.2
20260903055004 69 91 1.0 2.0 0.00 2.04 0.00 96 1010.2
20260903054554 69 46 0.0 1.0 0.00 2.04 0.00 95 1012.1
20260903054504 69 108 0.0 1.0 0.00 2.04 0.00 96 1010.3
20260903054003 69 18 0.0 1.0 0.00 2.04 0.00 96 1010.3
20260903053503 69 102 1.0 2.0 0.00 2.04 0.00 96 1010.3
20260903053053 69 0 0.0 2.0 0.00 2.04 0.00 95 1012.2
20260903052004 69 158 0.0 1.0 0.00 2.04 0.00 95 1009.8
20260903051607 69 28 0.0 1.0 0.00 2.04 0.00 95 1011.7
20260903051503 69 53 0.0 1.0 0.00 2.04 0.00 95 1009.8
20260903051003 69 57 0.0 1.0 0.00 2.04 0.00 95 1009.9
20260903050503 69 249 0.0 1.0 0.00 2.04 0.00 95 1010.0
20260903050100 69 0 0.0 1.0 0.00 2.04 0.00 95 1011.8
20260903050004 69 249 0.0 1.0 0.00 2.04 0.00 95 1009.8
20260903045504 69 271 0.0 1.0 0.00 2.04 0.00 95 1009.7
20260903045004 69 55 0.0 2.0 0.00 2.04 0.00 95 1009.7
20260903044556 69 28 0.0 2.0 0.00 2.04 0.00 95 1011.6
20260903044503 69 55 1.0 2.0 0.00 2.04 0.00 95 1009.6
20260903044004 69 44 0.0 1.0 0.00 2.04 0.00 95 1009.8
20260903043504 69 261 0.0 2.0 0.00 2.04 0.00 95 1009.6
20260903043059 69 178 0.0 2.0 0.00 2.04 0.00 95 1011.4
20260903043004 69 187 0.0 2.0 0.00 2.04 0.00 95 1009.6
20260903042504 69 258 1.0 2.0 0.00 2.04 0.00 95 1009.5
20260903042004 69 247 0.0 1.0 0.00 2.04 0.00 95 1009.2
20260903041556 69 0 0.0 2.0 0.00 2.04 0.00 95 1011.2
20260903041503 69 68 0.0 1.0 0.00 2.04 0.00 95 1009.4
20260903041004 69 343 0.0 2.0 0.00 2.04 0.00 95 1009.4
20260903040503 70 223 1.0 2.0 0.00 2.04 0.00 95 1009.4
20260903040103 69 0 1.0 3.0 0.00 2.04 0.00 95 1011.1
20260903040004 69 177 2.0 3.0 0.00 2.04 0.00 95 1009.3
20260903035504 70 193 0.0 2.0 0.02 2.04 2.04 95 1009.4
20260903035004 70 170 1.0 3.0 0.07 2.04 2.04 95 1009.5
20260903034559 69 178 1.0 4.0 0.10 2.04 2.04 95 1011.6
20260903034503 70 198 1.0 2.0 0.10 2.04 2.04 95 1009.8
20260903034004 70 176 1.0 3.0 0.10 2.04 2.04 95 1009.9
20260903033058 69 0 1.0 5.0 0.10 2.04 2.04 95 1011.9
20260903033004 70 193 1.0 5.0 0.10 2.04 2.04 95 1010.2
20260903032504 70 187 2.0 3.0 0.11 2.04 2.04 95 1010.1
20260903032003 70 192 1.0 3.0 0.11 2.04 2.04 95 1010.1
20260903031556 69 135 1.0 6.0 0.11 2.04 2.04 95 1012.0
20260903031504 70 300 1.0 6.0 0.11 2.04 2.04 95 1010.3
20260903031003 70 186 2.0 5.0 0.11 2.04 2.04 95 1010.2
20260903030054 69 169 2.0 8.0 0.11 2.04 2.04 95 1012.0
20260903030004 70 179 2.0 7.0 0.12 2.04 2.04 95 1010.2
20260903025504 70 186 2.0 5.0 0.10 2.02 2.02 95 1010.4
20260903025003 70 192 3.0 3.0 0.05 1.97 1.97 95 1010.5
20260903024601 69 193 2.0 6.0 0.03 1.94 1.94 94 1012.3
20260903023104 69 148 1.0 4.0 0.04 1.94 1.94 94 1012.8
20260903023004 69 97 1.0 2.0 0.04 1.94 1.94 95 1011.0
20260903022004 69 208 2.0 5.0 0.03 1.93 1.93 95 1011.9
20260903021603 69 0 2.0 7.0 0.03 1.93 1.93 94 1013.1
20260903021504 69 193 2.0 5.0 0.03 1.93 1.93 95 1011.1
20260903021003 69 231 3.0 6.0 0.04 1.93 1.93 95 1010.2
20260903020504 69 184 3.0 7.0 0.04 1.93 1.93 95 1010.2
20260903020101 69 40 2.0 7.0 0.04 1.93 1.93 94 1012.0
20260903020004 69 152 3.0 5.0 0.03 1.92 1.92 95 1010.3
20260903015004 69 171 2.0 5.0 0.05 1.92 1.92 95 1010.6
20260903014604 69 63 2.0 7.0 0.04 1.91 1.91 94 1012.3
20260903014503 69 191 2.0 6.0 0.04 1.91 1.91 95 1010.6
20260903014004 69 128 2.0 7.0 0.04 1.90 1.90 95 1010.7
20260903013504 69 203 2.0 6.0 0.05 1.90 1.90 95 1011.2
20260903013108 69 142 3.0 8.0 0.05 1.90 1.90 94 1013.0
20260903012503 69 190 2.0 3.0 0.06 1.90 1.90 95 1011.4
20260903012004 69 167 2.0 7.0 0.07 1.90 1.90 95 1011.4
20260903011554 69 206 2.0 6.0 0.08 1.90 1.90 94 1013.3
20260903011003 69 170 1.0 3.0 0.10 1.89 1.89 95 1011.5
20260903010503 69 135 1.0 3.0 0.13 1.89 1.89 94 1011.5
20260903010056 69 124 2.0 4.0 0.20 1.89 1.89 94 1013.5
20260903010004 69 169 2.0 3.0 0.23 1.89 1.89 94 1011.7
20260903005003 69 178 0.0 2.0 0.67 1.87 1.87 94 1012.0
20260903004602 69 89 1.0 2.0 0.86 1.87 1.87 94 1013.9
20260903004504 69 154 1.0 2.0 0.96 1.87 1.87 94 1012.1
20260903004003 69 269 0.0 2.0 1.25 1.86 1.86 94 1011.7
20260903003504 69 121 1.0 2.0 1.34 1.85 1.85 94 1011.3
20260903003059 69 0 0.0 2.0 1.34 1.85 1.85 93 1013.1
20260903003003 69 154 1.0 2.0 1.34 1.85 1.85 94 1011.3
20260903002504 69 185 1.0 2.0 1.33 1.84 1.84 94 1011.1
20260903002003 70 235 1.0 2.0 1.32 1.83 1.83 93 1010.9
20260903001602 69 331 1.0 4.0 1.31 1.82 1.82 93 1012.8
20260903001504 70 104 2.0 3.0 1.31 1.82 1.82 94 1011.1
20260903001003 70 77 1.0 3.0 1.30 1.79 1.79 93 1011.6
20260903000051 69 162 1.0 7.0 1.59 1.68 1.68 92 1015.1
20260903000004 70 110 1.0 6.0 1.57 1.66 1.66 93 1013.1
20260902235504 70 273 3.0 7.0 1.29 1.38 1.38 92 1013.0
20260902235004 71 162 2.0 5.0 1.11 1.20 1.20 91 1011.2
20260902234625 71 59 2.0 10.0 0.89 0.98 0.98 90 1013.4
20260902234504 72 53 2.0 5.0 0.82 0.91 0.91 90 1011.8
20260902234004 73 352 3.0 10.0 0.52 0.61 0.61 90 1012.6
20260902233056 74 300 0.0 3.0 0.42 0.51 0.51 91 1010.8
20260902233004 75 172 1.0 2.0 0.42 0.51 0.51 91 1008.6
20260902232503 75 139 1.0 3.0 0.42 0.51 0.51 90 1009.0
20260902232004 76 215 2.0 3.0 0.42 0.51 0.51 89 1009.3
20260902231607 76 20 1.0 16.0 0.42 0.51 0.51 89 1011.2
20260902231504 77 20 2.0 8.0 0.42 0.51 0.51 88 1009.4
20260902231003 78 177 5.0 14.0 0.40 0.49 0.49 88 1009.4
20260902230503 80 170 4.0 16.0 0.21 0.30 0.30 86 1009.5
20260902230106 81 203 1.0 3.0 0.00 0.09 0.09 84 1010.8
20260902230004 81 180 2.0 3.0 0.00 0.09 0.09 84 1008.7
20260902225504 82 120 1.0 2.0 0.00 0.09 0.09 83 1009.0
20260902225003 82 58 0.0 1.0 0.00 0.09 0.09 81 1009.3
20260902224604 82 0 0.0 2.0 0.00 0.09 0.09 80 1011.3
20260902224503 83 116 0.0 1.0 0.00 0.09 0.09 80 1009.2
20260902224004 83 60 0.0 1.0 0.00 0.09 0.09 80 1009.2
20260902223504 83 110 1.0 2.0 0.00 0.09 0.09 79 1008.9
20260902223113 83 0 0.0 2.0 0.00 0.09 0.09 78 1011.3
20260902223004 84 198 1.0 2.0 0.00 0.09 0.09 78 1009.2
20260902222504 84 130 0.0 2.0 0.00 0.09 0.09 78 1009.2
20260902221606 84 89 0.0 2.0 0.00 0.09 0.09 77 1011.0
20260902221004 85 83 0.0 1.0 0.00 0.09 0.09 77 1009.1
20260902220504 85 118 1.0 2.0 0.00 0.09 0.09 77 1009.2
20260902220128 85 164 0.0 2.0 0.00 0.09 0.09 76 1011.3
20260902220003 85 169 1.0 2.0 0.00 0.09 0.09 76 1009.3
20260902215503 85 137 0.0 2.0 0.00 0.09 0.09 76 1009.2
20260902215003 85 107 0.0 1.0 0.00 0.09 0.09 76 1009.3
20260902214614 84 269 0.0 2.0 0.00 0.09 0.09 75 1011.3
20260902214504 85 155 0.0 2.0 0.00 0.09 0.09 75 1009.4
20260902213100 85 1 0.0 3.0 0.00 0.09 0.09 73 1011.6
20260902213004 86 33 1.0 2.0 0.00 0.09 0.09 73 1009.9
20260902212503 86 139 1.0 2.0 0.00 0.09 0.09 72 1009.7
20260902212003 86 155 1.0 3.0 0.00 0.09 0.09 70 1009.9
20260902211605 86 161 0.0 2.0 0.00 0.09 0.09 69 1011.7
20260902211503 87 170 1.0 2.0 0.00 0.09 0.09 70 1009.8
20260902211004 87 175 0.0 2.0 0.00 0.09 0.09 70 1009.8
20260902210504 87 122 1.0 2.0 0.00 0.09 0.09 71 1009.9
20260902210105 86 0 0.0 4.0 0.00 0.09 0.09 70 1011.9
20260902210004 87 93 1.0 2.0 0.00 0.09 0.09 71 1010.2
20260902205503 87 166 1.0 3.0 0.00 0.09 0.09 68 1010.5
20260902205004 88 172 2.0 3.0 0.00 0.09 0.09 69 1010.6
20260902204603 87 197 1.0 3.0 0.00 0.09 0.09 67 1012.7
20260902204504 88 173 1.0 3.0 0.00 0.09 0.09 68 1010.9
20260902204003 89 222 1.0 2.0 0.00 0.09 0.09 68 1010.9
20260902203503 89 113 1.0 2.0 0.00 0.09 0.09 70 1010.9
20260902203101 88 269 2.0 5.0 0.00 0.09 0.09 70 1012.8
20260902203004 88 2 2.0 5.0 0.00 0.09 0.09 70 1010.9
20260902202504 88 276 1.0 3.0 0.00 0.09 0.09 69 1010.9
20260902202004 87 247 2.0 5.0 0.00 0.09 0.09 70 1011.0
20260902201606 88 248 1.0 4.0 0.00 0.09 0.09 72 1013.1
20260902201503 88 165 2.0 3.0 0.00 0.09 0.09 72 1011.1
20260902200057 86 140 1.0 5.0 0.00 0.09 0.09 72 1013.2
20260902200004 86 205 2.0 5.0 0.00 0.09 0.09 72 1011.2
20260902195504 86 197 2.0 5.0 0.00 0.09 0.09 73 1011.3
20260902195004 87 196 2.0 3.0 0.00 0.09 0.09 73 1011.3
20260902194553 86 166 2.0 8.0 0.00 0.09 0.09 72 1013.2
20260902194503 86 215 2.0 8.0 0.00 0.09 0.09 72 1011.3
20260902194003 86 160 2.0 3.0 0.00 0.09 0.09 73 1011.3
20260902193504 86 247 3.0 7.0 0.00 0.09 0.09 72 1011.3
20260902193058 86 167 1.0 5.0 0.00 0.09 0.09 72 1013.1
20260902193004 86 181 2.0 3.0 0.00 0.09 0.09 73 1011.1
20260902192004 86 174 1.0 3.0 0.00 0.09 0.09 74 1011.2
20260902191556 85 269 2.0 5.0 0.00 0.09 0.09 73 1013.0
20260902190504 86 251 2.0 3.0 0.00 0.09 0.09 73 1011.1
20260902190056 85 208 2.0 5.0 0.00 0.09 0.09 71 1012.9
20260902190004 86 195 2.0 3.0 0.00 0.09 0.09 72 1010.9
20260902185503 87 178 1.0 3.0 0.00 0.09 0.09 71 1010.9
20260902185003 86 122 2.0 5.0 0.00 0.09 0.09 70 1010.9
20260902184601 86 145 1.0 4.0 0.00 0.09 0.09 72 1012.7
20260902184504 86 172 1.0 3.0 0.00 0.09 0.09 72 1010.8
20260902184004 86 264 1.0 3.0 0.00 0.09 0.09 70 1010.8
20260902183101 86 185 1.0 7.0 0.00 0.09 0.09 69 1012.8
20260902183003 86 157 2.0 3.0 0.00 0.09 0.09 70 1010.9